Weather in Berezovka

Russia / Kaluga Oblast     54°51′10″N   36°19′00″E
temp.,
°C
wind,
m/s
gust,
m/s
humid.,
%
clouds,
%
prec.,
mm/h
press.,
hPa
HPBL,
m
19 april, mon
mon1900:00+5ne389235 0.0 1021280
03:00+5ne51094100 0.0 1021362
06:00+5ene5119398 0.1 1021553
09:00+6ene51091100 0.3 1022855
12:00+7ene61084100 0.0 1022920
15:00+8ene6977100 0.1 10221128
18:00+6ene61086100 0.2 10221019
21:00+5ene51195100 0.5 1022865
20 april, tue
tue2000:00+3ene61294100 0.1 1022680
03:00+2ene61297100 0.6 1021550
06:00+2ene51397100 0.9 1019524
09:00+2ene51298100 3.9 1019587
12:00+3e61297100 4.8 1018714
15:00+3ene61197100 4.8 1016600
18:00+3ene61297100 0.0 1014647
21:00+2ne71397100 0.9 1010603
21 april, wed
wed2100:00+1ne61598100 4.7 1006677
03:000ne51299100 8.0 1001491
06:00+4ene38100100 8.9 998265
09:00+4sw24100100 10.5 997162
12:00+1wsw61298100 0.8 1001491
15:00+3wsw71194100 1.1 1005967
18:00+3sw61193100 0.0 1008672
21:00+3ssw51196100 0.0 1011484
22 april, thu
thu2200:00+3ssw41094100 0.1 1012323
03:00+2ssw4109598 0.1 1013231
06:00+1ssw3996100 0.0 1014236
09:00+5ssw4883100 0.0 1015384
12:00+10ssw5866100 0.0 1016996
15:00+12ssw475758 0.0 10151577
18:00+12s4875100 0.3 1015627
21:00+7sse399134 0.3 1016159
23 april, fri
fri2300:00+6s4119154 0.0 1016202
03:00+5s389553 0.0 1016167
06:00+5sse389740 0.1 1016166
09:00+11s510775 0.3 1015521
12:00+14s8116631 0.5 10131356
15:00+15s8116399 1.8 10111533
18:00+12s51178100 1.7 1010680
21:00+5wsw4895100 5.7 1012543